Location: Ceske Budejovice
(48.9830°N, 14.4670°E)
Time: 03:57:31
(UTC+01:00)

ISS - Visible Passes

Search period start: 22 March 2023 00:00
Search period end: 01 April 2023 01:00
Orbit: 414 x 423 km, 51.6° (Epoch: 22 March)

Date Brightness Start Highest point End Pass type
(mag) Time Alt. Az. Time Alt. Az. Time Alt. Az.
22 Mar -3.2 20:18:05 10° W 20:21:22 51° N 20:21:38 50° NNE visible
23 Mar -3.2 19:30:11 10° W 19:33:29 54° N 19:35:46 18° ENE visible
23 Mar -1.4 21:07:11 10° WNW 21:08:43 24° WNW 21:08:43 24° WNW visible
24 Mar -3.5 20:19:18 10° WNW 20:22:37 57° N 20:22:47 55° NNE visible
25 Mar -3.2 19:31:22 10° WNW 19:34:40 52° N 19:36:50 19° ENE visible
25 Mar -1.5 21:08:14 10° WNW 21:09:46 25° WNW 21:09:46 25° WNW visible
26 Mar -3.9 21:20:19 10° WNW 21:23:40 82° NNE 21:23:46 80° NE visible
27 Mar -3.6 20:32:21 10° WNW 20:35:42 66° NNE 20:37:45 21° E visible
27 Mar -1.4 22:09:15 10° WNW 22:10:41 21° W 22:10:41 21° W visible
28 Mar -3.5 21:21:12 10° WNW 21:24:29 55° SSW 21:24:40 54° SSW visible
29 Mar -3.8 20:33:10 10° WNW 20:36:31 78° SSW 20:38:39 21° ESE visible
29 Mar -1.1 22:10:34 10° W 22:11:35 14° WSW 22:11:35 14° WSW visible
30 Mar -2.2 21:22:10 10° W 21:25:01 26° SW 21:25:34 25° SSW visible
31 Mar -2.7 20:33:56 10° WNW 20:37:05 38° SSW 20:39:36 14° SSE visible
